This demonstration page uses our WeatherBlox Daily Observations layout. Learn more.

Left ArrowRight Arrow

44.8408, -93.29828

Hourly Observations for March 20, 2017

Temp ( °F °C ) Dew Point ( °F °C ) Humidity (%) Winds ( mph kmh ) Pressure ( in mb ) Visibility ( mi km ) Precip ( " mm )
12:53 am 00:53 Mostly Clear 42 5.6 34 1.1 73 73 Calm 29.97 1015 10 16 0.00 0.00
1:53 am 01:53 Mostly Cloudy 38 3.3 33 0.6 83 83 NNW 3 6 29.98 1015 10 16 0.00 0.00
2:53 am 02:53 Mostly Cloudy 37 2.8 32 0 82 82 NNW 3 6 29.98 1015 9 14 0.00 0.00
3:53 am 03:53 Mostly Cloudy 38 3.3 34 1.1 86 86 N 6 9 29.97 1015 10 16 0.00 0.00
4:53 am 04:53 Partly Cloudy 43 6.1 35 1.7 74 74 N 12 19 29.99 1016 10 16 0.00 0.00
5:53 am 05:53 Cloudy 43 6.1 35 1.7 74 74 N 13 20 30.02 1017 10 16 0.00 0.00
6:53 am 06:53 Cloudy 44 6.7 34 1.1 68 68 N 14 22 30.05 1018 10 16 0.00 0.00
7:53 am 07:53 Mostly Cloudy 43 6.1 33 0.6 68 68 N 12 19 30.09 1019 10 16 0.00 0.00
8:53 am 08:53 Mostly Cloudy 44 6.7 32 0 63 63 N 9 15 30.14 1021 10 16 0.00 0.00
9:53 am 09:53 Mostly Cloudy 45 7.2 31 -0.6 58 58 NNE 12 19 30.14 1021 10 16 0.00 0.00
10:53 am 10:53 Cloudy 47 8.3 31 -0.6 54 54 NE 8 13 30.15 1021 10 16 0.00 0.00
11:53 am 11:53 Cloudy 48 8.9 31 -0.6 52 52 NNE 7 11 30.17 1022 10 16 0.00 0.00
12:53 pm 12:53 Cloudy 48 8.9 30 -1.1 50 50 N 9 15 30.19 1022 10 16 0.00 0.00
1:53 pm 13:53 Cloudy 50 10 28 -2.2 43 43 NNE 9 15 30.18 1022 10 16 0.00 0.00
2:53 pm 14:53 Mostly Cloudy 52 11.1 27 -2.8 38 38 NNW 10 17 30.17 1022 10 16 0.00 0.00
3:53 pm 15:53 Partly Cloudy 54 12.2 21 -6.1 28 28 NNE 6 9 30.16 1021 10 16 0.00 0.00
4:53 pm 16:53 Partly Cloudy 54 12.2 20 -6.7 26 26 N 8 13 30.15 1021 10 16 0.00 0.00
5:53 pm 17:53 Mostly Cloudy 54 12.2 15 -9.4 21 21 NNW 9 15 30.14 1021 10 16 0.00 0.00
6:53 pm 18:53 Partly Cloudy 52 11.1 17 -8.3 25 25 NW 8 13 30.16 1021 10 16 0.00 0.00
7:53 pm 19:53 Mostly Clear 47 8.3 18 -7.8 31 31 WNW 8 13 30.19 1022 10 16 0.00 0.00
8:53 pm 20:53 Clear 45 7.2 17 -8.3 33 33 WNW 5 7 30.19 1023 10 16 0.00 0.00
9:53 pm 21:53 Clear 42 5.6 18 -7.8 38 38 WNW 5 7 30.21 1023 10 16 0.00 0.00
10:53 pm 22:53 Mostly Clear 42 5.6 17 -8.3 36 36 NW 8 13 30.23 1024 10 16 0.00 0.00
11:53 pm 23:53 Clear 42 5.6 17 -8.3 36 36 NW 9 15 30.24 1024 10 16 0.00 0.00

Powered by AerisWeather